| time (UTC) | temp F | wind direction | speed knots | gust knots | rain 1hr in | rain 24hr in | rain mn in | humidity % | barometer mb |
| 20260509070112 | 53 | 62 | 0.0 | 1.7 | 0.00 | 0.00 | 0.00 | ||
| 20260509063049 | 53 | 71 | 0.0 | 1.7 | 0.00 | 0.00 | 0.00 | ||
| 20260509060100 | 54 | 229 | 0.0 | 0.9 | 0.00 | 0.00 | 0.00 | ||
| 20260509053040 | 53 | 229 | 0.0 | 0.9 | 0.00 | 0.00 | 0.00 | ||
| 20260509050052 | 53 | 229 | 0.0 | 0.9 | 0.00 | 0.00 | 0.00 | ||
| 20260509043052 | 54 | 229 | 0.0 | 0.0 | 0.00 | 0.00 | 0.00 | ||
| 20260509040101 | 54 | 249 | 0.0 | 0.9 | 0.00 | 0.00 | 0.00 | ||
| 20260509033037 | 55 | 224 | 0.0 | 0.0 | 0.00 | 0.00 | 0.00 | ||
| 20260509030109 | 55 | 254 | 0.9 | 5.2 | 0.00 | 0.00 | 0.00 | ||
| 20260509023027 | 56 | 253 | 0.9 | 3.5 | 0.00 | 0.00 | 0.00 | ||
| 20260509020050 | 56 | 260 | 0.0 | 1.7 | 0.00 | 0.00 | 0.00 | ||
| 20260509013032 | 57 | 141 | 0.0 | 1.7 | 0.00 | 0.00 | 0.00 | ||
| 20260509010104 | 57 | 221 | 0.0 | 1.7 | 0.00 | 0.00 | 0.00 | ||
| 20260509000055 | 57 | 138 | 0.0 | 4.3 | 0.00 | 0.00 | 0.00 | ||
| 20260508233035 | 57 | 250 | 1.7 | 5.2 | 0.00 | 0.00 | 0.00 | ||
| 20260508230107 | 58 | 255 | 1.7 | 3.5 | 0.00 | 0.00 | 0.00 | ||
| 20260508223047 | 57 | 207 | 1.7 | 6.1 | 0.00 | 0.00 | 0.00 | ||
| 20260508220058 | 59 | 262 | 0.9 | 6.1 | 0.00 | 0.00 | 0.00 | ||
| 20260508203033 | 59 | 305 | 0.0 | 7.0 | 0.00 | 0.00 | 0.00 | ||
| 20260508200104 | 59 | 273 | 1.7 | 4.3 | 0.00 | 0.00 | 0.00 | ||
| 20260508193040 | 57 | 243 | 0.9 | 2.6 | 0.00 | 0.00 | 0.00 | ||
| 20260508190050 | 58 | 233 | 0.0 | 4.3 | 0.00 | 0.00 | 0.00 | ||
| 20260508180100 | 56 | 260 | 0.0 | 3.5 | 0.00 | 0.00 | 0.00 | ||
| 20260508173040 | 55 | 218 | 0.9 | 4.3 | 0.00 | 0.00 | 0.00 | ||
| 20260508170050 | 53 | 250 | 1.7 | 3.5 | 0.00 | 0.00 | 0.00 | ||
| 20260508163051 | 54 | 297 | 0.0 | 2.6 | 0.00 | 0.00 | 0.00 | ||
| 20260508153047 | 53 | 287 | 0.9 | 2.6 | 0.00 | 0.00 | 0.00 | ||
| 20260508150059 | 51 | 104 | 0.0 | 1.7 | 0.00 | 0.00 | 0.00 | ||
| 20260508143038 | 51 | 199 | 0.0 | 1.7 | 0.00 | 0.00 | 0.00 | ||
| 20260508133039 | 50 | 261 | 0.9 | 2.6 | 0.00 | 0.00 | 0.00 | ||
| 20260508130107 | 50 | 246 | 0.0 | 0.9 | 0.00 | 0.00 | 0.00 | ||
| 20260508123046 | 50 | 238 | 0.0 | 3.5 | 0.00 | 0.00 | 0.00 | ||
| 20260508120056 | 50 | 243 | 0.0 | 1.7 | 0.00 | 0.00 | 0.00 | ||
| 20260508113040 | 49 | 256 | 0.9 | 2.6 | 0.00 | 0.00 | 0.00 | ||
| 20260508110110 | 49 | 135 | 0.0 | 0.9 | 0.00 | 0.00 | 0.00 | ||
| 20260508103051 | 48 | 135 | 0.0 | 0.9 | 0.00 | 0.00 | 0.00 | ||
| 20260508100059 | 48 | 135 | 0.0 | 0.9 | 0.00 | 0.00 | 0.00 | ||
| 20260508093038 | 48 | 138 | 0.0 | 0.0 | 0.00 | 0.00 | 0.00 | ||
| 20260508083047 | 48 | 171 | 0.0 | 0.0 | 0.00 | 0.00 | 0.00 | ||
| 20260508080056 | 48 | 171 | 0.0 | 0.0 | 0.00 | 0.00 | 0.00 | ||
| 20260508073038 | 48 | 171 | 0.0 | 0.0 | 0.00 | 0.00 | 0.00 |